Weather in Romankovtsy

Ukraine / Chernovtci District     48°28′59″N   27°12′52″E
temp.,
°C
wind,
m/s
gust,
m/s
humid.,
%
clouds,
%
prec.,
mm/h
press.,
hPa
HPBL,
m
12 august, fri
fri1200:00+17n378188 0.0 1019178
03:00+17nnw248885 0.4 1019106
06:00+15nnw3495100 0.1 101983
09:00+19n468293 0.4 1018392
12:00+21n4678100 0.1 1018505
15:00+21nne597772 1.1 1017451
18:00+21ne597456 0.0 1017519
21:00+18nne379244 0.0 1017167
13 august, sat
sat1300:00+17n339434 0.0 101649
03:00+17nnw3691100 0.0 1015160
06:00+17nnw4791100 0.0 1014211
09:00+20nne4682100 0.0 1013430
12:00+26nne455399 0.0 10111318
15:00+27n3453100 3.9 10101338
18:00+24nw3666100 0.1 1009165
21:00+21n41078100 0.1 1009184
14 august, sun
sun1400:00+20nne4880100 0.0 1008161
03:00+19nw3378100 0.0 100838
06:00+17n3389100 0.1 100836
09:00+21nne5576100 0.6 1008414
12:00+22nne3475100 3.9 1008365
15:00+27ne3447100 3.9 10071255
18:00+28ese4749100 0.0 10071629
21:00+19ssw1179100 0.3 100815
15 august, mon
mon1500:00+18nw228352 0.3 100816
03:00+18nne2280100 0.4 100718
06:00+18ne2280100 0.5 100715
09:00+21nne236499 1.3 1007202
12:00+27n1143100 0.0 1006846
15:00+30w2236100 0.0 10051775
18:00+30nw1236100 0.0 10051952
21:00+23nw225912 0.0 100615
16 august, tue
tue1600:00+21w337054 0.0 100733
03:00+19nnw227844 0.0 100622
06:00+18w228125 0.1 100718
09:00+23w226140 0.2 1007273
12:00+28wsw23445 0.1 10071069
15:00+30w44385 0.1 10072092
18:00+30wsw34353 0.0 10062105
21:00+18sw4994100 7.3 1010231